Language: 


Des rapports , des résumés tant et plus, au choix de chacun....


Données statistiques de la station
Quotidien Rapport Septembre 11, 2017 Unités:  Métrique    Anglais   les deux
« Précédent Jour
Suivant Jour »
Quotidien Hebdomadaire Mensuel Annuel Actuel
  Haut: Bas: Moyen:
Température: 16.9 °C 0.0 °C 14 °C
Pt de rosée: 17.0 °C 12.0 °C 13.5 °C
Humidité: 98 % 0 % 94 %
Vitesse du vent: 32.0 km/h 0.0 km/h 13.6 km/h
Rafales: 36.7 km/h - -
Vent:- - SW
Pression: 998.9 hPa 994.1 hPa -
Précipitation: 22.1 mm    
Historical Graphs
 
 
Données statistiques pour Septembre 11, 2017
Heure Température Point de rosée Pression Vent Vitesse du vent Refales Humidité Pluie (taux horaire)
00:00 15.0 °C 14.0 °C 994.1 hPa South 16.9 km/h 22.4 km/h 93 % 0.0 mm
00:05 15.2 °C 14.0 °C 994.1 hPa WSW 14.0 km/h 21.9 km/h 92 % 0.0 mm
00:10 15.2 °C 14.0 °C 994.1 hPa WSW 14.0 km/h 24.5 km/h 92 % 0.0 mm
00:15 15.2 °C 14.0 °C 994.1 hPa SW 8.7 km/h 24.5 km/h 92 % 0.0 mm
00:20 15.2 °C 14.0 °C 994.1 hPa WSW 17.7 km/h 27.4 km/h 92 % 0.0 mm
00:25 15.1 °C 14.0 °C 994.1 hPa WSW 9.7 km/h 27.4 km/h 93 % 0.0 mm
00:30 14.9 °C 14.0 °C 995.1 hPa WSW 14.0 km/h 21.2 km/h 94 % 0.0 mm
00:35 14.8 °C 14.0 °C 995.1 hPa West 17.7 km/h 33.1 km/h 94 % 0.0 mm
00:40 14.7 °C 14.0 °C 995.1 hPa SW 10.1 km/h 33.1 km/h 95 % 1.3 mm
00:45 14.5 °C 14.0 °C 995.1 hPa SW 16.6 km/h 24.8 km/h 96 % 1.8 mm
00:50 14.4 °C 14.0 °C 995.1 hPa WSW 14.0 km/h 24.8 km/h 97 % 2.3 mm
00:55 14.4 °C 14.0 °C 995.1 hPa WSW 15.8 km/h 27.4 km/h 97 % 2.3 mm
01:00 14.4 °C 14.0 °C 995.1 hPa SSW 20.9 km/h 27.4 km/h 98 % 2.3 mm
01:05 14.4 °C 14.0 °C 995.1 hPa SW 15.1 km/h 22.4 km/h 98 % 2.3 mm
01:10 14.3 °C 14.0 °C 995.1 hPa SSW 9.0 km/h 22.4 km/h 98 % 2.3 mm
01:16 14.3 °C 14.0 °C 995.1 hPa SW 12.6 km/h 15.4 km/h 98 % 2.3 mm
01:21 14.3 °C 14.0 °C 995.1 hPa SSW 9.7 km/h 15.4 km/h 98 % 2.3 mm
01:26 14.2 °C 14.0 °C 995.1 hPa SW 14.0 km/h 16.6 km/h 98 % 2.3 mm
01:31 14.2 °C 14.0 °C 995.1 hPa West 14.0 km/h 16.6 km/h 98 % 2.3 mm
01:36 14.2 °C 14.0 °C 995.1 hPa SW 11.6 km/h 22.7 km/h 98 % 1.8 mm
01:41 14.2 °C 14.0 °C 995.1 hPa South 12.6 km/h 22.7 km/h 98 % 0.5 mm
01:51 14.1 °C 14.0 °C 995.1 hPa SW 10.1 km/h 16.3 km/h 97 % 0.0 mm
01:56 14.0 °C 14.0 °C 995.1 hPa WSW 6.1 km/h 17.2 km/h 97 % 0.0 mm
02:01 14.0 °C 14.0 °C 995.1 hPa SW 7.9 km/h 17.2 km/h 97 % 0.0 mm
02:06 14.0 °C 14.0 °C 995.1 hPa West 9.3 km/h 17.2 km/h 97 % 0.0 mm
02:11 14.0 °C 14.0 °C 995.1 hPa WSW 12.6 km/h 20.1 km/h 97 % 0.0 mm
02:12 14.0 °C 14.0 °C 995.1 hPa SSW 9.7 km/h 20.1 km/h 97 % 0.0 mm
02:18 14.0 °C 14.0 °C 994.1 hPa SW 17.2 km/h 20.1 km/h 97 % 0.0 mm
02:23 14.0 °C 14.0 °C 994.1 hPa South 10.1 km/h 19.8 km/h 97 % 0.0 mm
02:28 14.0 °C 14.0 °C 994.1 hPa SSW 9.3 km/h 17.2 km/h 97 % 0.0 mm
02:33 14.0 °C 14.0 °C 995.1 hPa South 17.7 km/h 17.7 km/h 97 % 0.0 mm
02:38 14.0 °C 14.0 °C 995.1 hPa SSW 13.0 km/h 17.7 km/h 97 % 0.0 mm
02:43 13.8 °C 13.0 °C 995.1 hPa SSW 9.7 km/h 16.3 km/h 97 % 0.0 mm
02:48 13.8 °C 13.0 °C 995.1 hPa WSW 13.7 km/h 16.3 km/h 97 % 0.0 mm
02:53 13.8 °C 13.0 °C 995.1 hPa WSW 10.1 km/h 15.4 km/h 97 % 0.0 mm
02:58 13.7 °C 13.0 °C 995.1 hPa WSW 13.0 km/h 16.3 km/h 97 % 0.0 mm
03:03 0.0 °C 13.0 °C 995.1 hPa WSW 16.6 km/h 18.3 km/h 0 % 0.0 mm
03:08 0.0 °C 13.0 °C 995.1 hPa SSW 12.6 km/h 18.3 km/h 0 % 0.0 mm
03:13 13.5 °C 13.0 °C 995.1 hPa WSW 9.7 km/h 16.6 km/h 96 % 0.0 mm
03:18 13.4 °C 13.0 °C 995.1 hPa SW 12.2 km/h 17.2 km/h 96 % 0.0 mm
03:23 13.4 °C 13.0 °C 995.1 hPa SW 10.5 km/h 17.7 km/h 96 % 0.0 mm
03:28 13.4 °C 13.0 °C 995.1 hPa SSW 6.9 km/h 17.7 km/h 96 % 0.0 mm
03:33 13.2 °C 13.0 °C 996.2 hPa WSW 8.7 km/h 13.0 km/h 96 % 0.0 mm
03:38 13.2 °C 13.0 °C 996.2 hPa SSW 10.1 km/h 13.7 km/h 96 % 0.0 mm
03:43 13.2 °C 13.0 °C 996.2 hPa West 12.2 km/h 17.7 km/h 96 % 0.0 mm
03:48 13.2 °C 13.0 °C 995.1 hPa WSW 16.9 km/h 17.7 km/h 96 % 0.0 mm
03:53 13.2 °C 13.0 °C 995.1 hPa SW 12.2 km/h 16.9 km/h 96 % 0.0 mm
03:58 13.2 °C 13.0 °C 995.1 hPa WSW 7.9 km/h 16.9 km/h 96 % 0.0 mm
04:03 13.2 °C 13.0 °C 995.1 hPa SW 9.0 km/h 15.8 km/h 96 % 0.0 mm
04:08 13.2 °C 13.0 °C 995.1 hPa WSW 10.5 km/h 13.0 km/h 96 % 0.0 mm
04:13 13.2 °C 13.0 °C 995.1 hPa SW 11.9 km/h 13.0 km/h 96 % 0.0 mm
04:18 13.2 °C 13.0 °C 995.1 hPa SSW 12.2 km/h 14.0 km/h 95 % 0.0 mm
04:23 13.2 °C 13.0 °C 995.1 hPa SSW 9.0 km/h 17.7 km/h 95 % 0.0 mm
04:28 13.1 °C 13.0 °C 995.1 hPa SW 12.6 km/h 17.7 km/h 95 % 0.0 mm
04:33 13.1 °C 13.0 °C 995.1 hPa SW 15.4 km/h 16.6 km/h 95 % 0.0 mm
04:38 13.0 °C 13.0 °C 995.1 hPa SSW 13.7 km/h 15.4 km/h 95 % 0.0 mm
04:43 12.9 °C 13.0 °C 995.1 hPa SW 8.7 km/h 15.4 km/h 95 % 0.0 mm
04:48 12.9 °C 13.0 °C 995.1 hPa SW 9.7 km/h 13.7 km/h 95 % 0.0 mm
04:53 12.8 °C 13.0 °C 995.1 hPa Calm   11.9 km/h 95 % 0.0 mm
04:59 12.7 °C 12.0 °C 995.1 hPa WSW 9.7 km/h 13.7 km/h 95 % 0.0 mm
05:04 12.7 °C 12.0 °C 995.1 hPa SSW 9.3 km/h 16.9 km/h 95 % 0.0 mm
05:09 12.7 °C 12.0 °C 995.1 hPa SW 13.0 km/h 16.9 km/h 95 % 0.0 mm
05:20 12.5 °C 12.0 °C 995.1 hPa WSW 6.4 km/h 14.0 km/h 94 % 0.0 mm
05:21 12.5 °C 12.0 °C 995.1 hPa SW 13.0 km/h 14.0 km/h 94 % 0.0 mm
05:26 12.4 °C 12.0 °C 995.1 hPa SSW 12.6 km/h 14.0 km/h 94 % 0.0 mm
05:31 12.4 °C 12.0 °C 995.1 hPa SSW 12.6 km/h 20.6 km/h 94 % 0.0 mm
05:32 12.4 °C 12.0 °C 995.1 hPa SSW 12.2 km/h 20.6 km/h 94 % 0.0 mm
05:33 12.4 °C 12.0 °C 995.1 hPa NW 13.7 km/h 20.6 km/h 95 % 0.0 mm
05:38 12.4 °C 12.0 °C 995.1 hPa SSW 17.2 km/h 20.6 km/h 95 % 0.0 mm
05:43 12.4 °C 12.0 °C 995.1 hPa SSW 8.7 km/h 17.7 km/h 95 % 0.0 mm
05:48 12.5 °C 13.0 °C 995.1 hPa West 15.4 km/h 17.7 km/h 96 % 0.0 mm
05:53 12.6 °C 13.0 °C 995.1 hPa SSW 12.6 km/h 16.3 km/h 96 % 0.0 mm
05:58 12.6 °C 13.0 °C 995.1 hPa WSW 19.8 km/h 19.8 km/h 96 % 0.0 mm
06:03 12.6 °C 13.0 °C 995.1 hPa WSW 8.7 km/h 19.8 km/h 96 % 0.0 mm
06:09 12.5 °C 13.0 °C 995.1 hPa SW 9.3 km/h 17.2 km/h 96 % 0.0 mm
06:14 12.5 °C 13.0 °C 995.1 hPa SW 5.5 km/h 17.2 km/h 96 % 0.0 mm
06:19 12.4 °C 12.0 °C 995.1 hPa WSW 11.9 km/h 15.4 km/h 96 % 0.0 mm
06:24 12.4 °C 12.0 °C 995.1 hPa SW 9.7 km/h 13.7 km/h 96 % 0.0 mm
06:29 12.4 °C 12.0 °C 995.1 hPa SSW 10.5 km/h 15.8 km/h 96 % 0.0 mm
06:34 12.4 °C 12.0 °C 995.1 hPa WSW 14.0 km/h 15.8 km/h 96 % 0.0 mm
06:39 12.4 °C 12.0 °C 995.1 hPa South 9.0 km/h 17.2 km/h 96 % 0.0 mm
06:44 12.5 °C 13.0 °C 995.1 hPa SW 15.8 km/h 17.2 km/h 96 % 0.0 mm
06:49 12.5 °C 13.0 °C 995.1 hPa SSW 10.1 km/h 19.1 km/h 96 % 0.3 mm
06:54 12.5 °C 13.0 °C 995.1 hPa SSW 12.2 km/h 19.1 km/h 96 % 0.3 mm
06:59 12.4 °C 12.0 °C 995.1 hPa SW 14.0 km/h 19.8 km/h 96 % 0.3 mm
07:04 12.4 °C 12.0 °C 995.1 hPa SSW 14.0 km/h 19.8 km/h 96 % 0.3 mm
07:09 12.3 °C 12.0 °C 995.1 hPa SSW 13.7 km/h 17.7 km/h 96 % 0.3 mm
07:14 12.3 °C 12.0 °C 995.1 hPa WSW 8.7 km/h 17.7 km/h 96 % 0.3 mm
07:19 12.3 °C 12.0 °C 994.1 hPa SW 10.1 km/h 17.2 km/h 97 % 0.3 mm
07:24 12.3 °C 12.0 °C 994.1 hPa SSW 6.1 km/h 17.7 km/h 97 % 0.3 mm
07:29 12.3 °C 12.0 °C 994.1 hPa SSW 10.5 km/h 17.7 km/h 97 % 0.3 mm
07:34 12.3 °C 12.0 °C 995.1 hPa SSW 7.9 km/h 16.9 km/h 97 % 0.3 mm
07:39 12.2 °C 12.0 °C 995.1 hPa SSW 13.7 km/h 14.3 km/h 97 % 0.3 mm
07:45 12.2 °C 12.0 °C 995.1 hPa SSW 13.0 km/h 19.8 km/h 97 % 0.3 mm
07:50 12.2 °C 12.0 °C 995.1 hPa SW 9.3 km/h 19.8 km/h 97 % 0.0 mm
07:55 12.2 °C 12.0 °C 995.1 hPa SSW 9.0 km/h 15.4 km/h 97 % 0.0 mm
08:00 12.2 °C 12.0 °C 995.1 hPa SW 12.2 km/h 15.4 km/h 97 % 0.0 mm
08:05 12.2 °C 12.0 °C 995.1 hPa SW 11.9 km/h 16.9 km/h 97 % 0.0 mm
08:10 12.4 °C 13.0 °C 995.1 hPa SSW 12.6 km/h 16.9 km/h 98 % 0.0 mm
08:15 12.5 °C 13.0 °C 995.1 hPa SW 7.9 km/h 13.7 km/h 97 % 0.0 mm
08:20 12.7 °C 13.0 °C 995.1 hPa WSW 9.3 km/h 16.3 km/h 97 % 0.0 mm
08:25 12.7 °C 13.0 °C 995.1 hPa SSW 9.7 km/h 16.9 km/h 97 % 0.0 mm
08:30 12.7 °C 13.0 °C 994.1 hPa SSW 12.6 km/h 17.2 km/h 97 % 0.0 mm
08:35 13.0 °C 13.0 °C 994.1 hPa SW 14.8 km/h 17.2 km/h 96 % 0.0 mm
08:40 13.0 °C 13.0 °C 994.1 hPa SW 14.8 km/h 17.2 km/h 96 % 0.0 mm
08:45 13.2 °C 13.0 °C 994.1 hPa WSW 13.0 km/h 20.1 km/h 95 % 0.0 mm
08:50 13.2 °C 13.0 °C 995.1 hPa South 16.9 km/h 20.6 km/h 95 % 0.0 mm
08:55 13.2 °C 13.0 °C 995.1 hPa WSW 13.7 km/h 20.6 km/h 95 % 0.0 mm
09:00 13.6 °C 13.0 °C 995.1 hPa SSW 14.8 km/h 19.8 km/h 94 % 0.0 mm
09:05 13.8 °C 13.0 °C 995.1 hPa SW 11.9 km/h 17.2 km/h 92 % 0.0 mm
09:10 13.9 °C 13.0 °C 995.1 hPa SSW 11.6 km/h 21.2 km/h 91 % 0.0 mm
09:15 13.9 °C 13.0 °C 995.1 hPa SSW 17.2 km/h 24.8 km/h 91 % 0.0 mm
09:20 14.2 °C 13.0 °C 995.1 hPa SSW 19.8 km/h 24.8 km/h 89 % 0.0 mm
09:25 14.2 °C 13.0 °C 995.1 hPa WSW 16.9 km/h 22.7 km/h 89 % 0.0 mm
09:30 14.4 °C 13.0 °C 995.1 hPa SW 24.8 km/h 24.8 km/h 89 % 0.0 mm
09:35 14.4 °C 13.0 °C 995.1 hPa WSW 13.7 km/h 24.8 km/h 89 % 0.0 mm
09:40 14.4 °C 13.0 °C 995.1 hPa SW 13.7 km/h 24.8 km/h 89 % 0.0 mm
09:45 14.3 °C 13.0 °C 995.1 hPa SW 25.6 km/h 25.6 km/h 88 % 0.0 mm
09:51 14.3 °C 13.0 °C 995.1 hPa SW 32.0 km/h 33.8 km/h 88 % 0.0 mm
09:56 14.0 °C 13.0 °C 995.1 hPa SSW 21.2 km/h 33.8 km/h 89 % 0.0 mm
10:01 13.8 °C 12.0 °C 995.1 hPa SW 16.6 km/h 33.8 km/h 90 % 0.0 mm
10:06 13.7 °C 12.0 °C 995.1 hPa SW 17.2 km/h 21.2 km/h 90 % 0.0 mm
10:11 13.9 °C 13.0 °C 995.1 hPa SSW 17.7 km/h 27.0 km/h 91 % 0.0 mm
10:16 14.4 °C 13.0 °C 995.1 hPa South 19.5 km/h 27.0 km/h 91 % 0.0 mm
10:21 14.6 °C 13.0 °C 995.1 hPa WSW 19.5 km/h 24.8 km/h 90 % 0.0 mm
10:26 14.8 °C 13.0 °C 995.1 hPa SSW 15.1 km/h 24.8 km/h 89 % 0.0 mm
10:31 14.8 °C 13.0 °C 995.1 hPa SW 16.9 km/h 22.4 km/h 88 % 0.0 mm
10:36 14.8 °C 13.0 °C 995.1 hPa SSW 17.2 km/h 27.0 km/h 87 % 0.0 mm
10:41 14.8 °C 13.0 °C 995.1 hPa WSW 13.0 km/h 27.0 km/h 87 % 0.0 mm
10:46 15.5 °C 13.0 °C 995.1 hPa SW 21.2 km/h 23.8 km/h 86 % 0.0 mm
10:51 15.7 °C 13.0 °C 995.1 hPa WSW 16.6 km/h 23.8 km/h 84 % 0.0 mm
10:56 16.0 °C 13.0 °C 995.1 hPa WSW 28.0 km/h 28.0 km/h 82 % 0.0 mm
11:01 15.6 °C 13.0 °C 995.1 hPa SSW 16.3 km/h 32.3 km/h 81 % 0.0 mm
11:06 15.8 °C 13.0 °C 995.1 hPa SW 16.9 km/h 32.3 km/h 81 % 0.0 mm
11:11 15.8 °C 13.0 °C 995.1 hPa SSW 20.6 km/h 29.1 km/h 81 % 0.0 mm
11:16 16.4 °C 13.0 °C 995.1 hPa SW 23.8 km/h 29.1 km/h 79 % 0.0 mm
11:21 16.5 °C 13.0 °C 995.1 hPa WSW 23.0 km/h 29.1 km/h 78 % 0.0 mm
11:27 16.9 °C 13.0 °C 995.1 hPa SW 28.0 km/h 29.9 km/h 78 % 0.0 mm
11:32 16.2 °C 13.0 °C 995.1 hPa SSW 23.8 km/h 29.9 km/h 78 % 0.0 mm
11:37 16.3 °C 13.0 °C 995.1 hPa SSW 23.3 km/h 26.7 km/h 79 % 0.0 mm
11:42 16.0 °C 13.0 °C 995.1 hPa WSW 20.6 km/h 31.4 km/h 80 % 0.0 mm
11:47 16.0 °C 13.0 °C 996.2 hPa SW 9.7 km/h 31.4 km/h 80 % 0.0 mm
11:52 15.8 °C 13.0 °C 996.2 hPa SSW 20.9 km/h 24.5 km/h 81 % 0.0 mm
11:57 15.7 °C 13.0 °C 996.2 hPa SSW 21.9 km/h 24.8 km/h 80 % 0.0 mm
12:02 16.2 °C 13.0 °C 995.1 hPa WSW 20.9 km/h 29.1 km/h 80 % 0.0 mm
12:07 16.2 °C 13.0 °C 995.1 hPa SW 16.3 km/h 31.4 km/h 80 % 0.0 mm
12:12 16.2 °C 13.0 °C 995.1 hPa South 15.8 km/h 31.4 km/h 80 % 0.0 mm
12:17 16.2 °C 13.0 °C 995.1 hPa West 20.1 km/h 24.8 km/h 80 % 0.0 mm
12:22 16.4 °C 12.0 °C 995.1 hPa SW 9.3 km/h 32.8 km/h 75 % 0.0 mm
12:23 16.5 °C 13.0 °C 995.1 hPa SSW 17.2 km/h 32.8 km/h 78 % 0.0 mm
12:28 16.5 °C 13.0 °C 995.1 hPa SSW 30.2 km/h 32.8 km/h 78 % 0.0 mm
12:33 16.2 °C 12.0 °C 996.2 hPa WSW 27.7 km/h 30.2 km/h 76 % 0.0 mm
12:38 16.2 °C 12.0 °C 996.2 hPa SSW 20.1 km/h 35.6 km/h 76 % 0.3 mm
12:43 16.2 °C 12.0 °C 996.2 hPa West 24.8 km/h 36.4 km/h 76 % 0.5 mm
12:48 14.4 °C 13.0 °C 996.2 hPa West 21.2 km/h 36.7 km/h 88 % 0.8 mm
12:53 14.4 °C 13.0 °C 996.2 hPa WSW 21.2 km/h 36.7 km/h 89 % 0.8 mm
12:58 14.4 °C 13.0 °C 996.2 hPa SW 16.6 km/h 24.8 km/h 89 % 0.8 mm
13:03 14.4 °C 13.0 °C 996.2 hPa WSW 16.6 km/h 21.6 km/h 89 % 0.8 mm
13:08 14.4 °C 13.0 °C 996.2 hPa WSW 15.8 km/h 21.6 km/h 89 % 0.8 mm
13:14 14.9 °C 14.0 °C 996.2 hPa SW 24.8 km/h 24.8 km/h 92 % 0.8 mm
13:19 15.1 °C 14.0 °C 995.1 hPa South 16.6 km/h 28.5 km/h 91 % 0.8 mm
13:24 15.1 °C 13.0 °C 995.1 hPa SSW 16.3 km/h 28.5 km/h 90 % 0.8 mm
13:26 15.1 °C 13.0 °C 995.1 hPa WSW 22.4 km/h 28.5 km/h 90 % 0.8 mm
13:31 14.8 °C 13.0 °C 996.2 hPa WSW 13.0 km/h 28.8 km/h 90 % 0.8 mm
13:36 14.7 °C 13.0 °C 996.2 hPa WSW 28.0 km/h 28.8 km/h 90 % 0.8 mm
13:41 14.6 °C 13.0 °C 996.2 hPa SSW 16.3 km/h 28.0 km/h 91 % 0.5 mm
13:46 14.5 °C 13.0 °C 996.2 hPa SSW 14.0 km/h 28.0 km/h 92 % 0.5 mm
13:51 14.5 °C 13.0 °C 996.2 hPa WSW 16.3 km/h 20.9 km/h 92 % 0.8 mm
13:56 14.2 °C 13.0 °C 996.2 hPa SW 14.0 km/h 21.6 km/h 93 % 0.8 mm
14:01 14.1 °C 13.0 °C 996.2 hPa WSW 22.7 km/h 32.0 km/h 94 % 1.0 mm
14:06 14.0 °C 13.0 °C 996.2 hPa WSW 14.0 km/h 32.0 km/h 94 % 1.0 mm
14:11 14.0 °C 13.0 °C 996.2 hPa SW 16.9 km/h 30.6 km/h 94 % 1.3 mm
14:16 14.2 °C 14.0 °C 996.2 hPa WSW 16.3 km/h 16.9 km/h 96 % 1.3 mm
14:21 14.2 °C 14.0 °C 996.2 hPa WSW 13.0 km/h 21.2 km/h 96 % 1.3 mm
14:26 14.3 °C 14.0 °C 996.2 hPa SSW 19.1 km/h 21.2 km/h 96 % 1.3 mm
14:31 14.2 °C 14.0 °C 996.2 hPa SW 16.3 km/h 20.9 km/h 96 % 1.5 mm
14:36 14.2 °C 14.0 °C 996.2 hPa WSW 15.1 km/h 17.7 km/h 96 % 1.3 mm
14:41 14.2 °C 14.0 °C 996.2 hPa SSW 15.8 km/h 17.7 km/h 96 % 1.3 mm
14:46 14.1 °C 14.0 °C 996.2 hPa WSW 21.2 km/h 27.7 km/h 96 % 1.5 mm
14:51 14.1 °C 14.0 °C 996.2 hPa SW 16.3 km/h 27.7 km/h 96 % 1.5 mm
14:57 14.1 °C 14.0 °C 996.2 hPa SW 12.6 km/h 24.8 km/h 96 % 1.5 mm
15:02 13.8 °C 13.0 °C 996.2 hPa West 10.8 km/h 20.9 km/h 97 % 1.5 mm
15:07 13.8 °C 13.0 °C 996.2 hPa SSW 12.2 km/h 17.2 km/h 97 % 1.5 mm
15:12 13.8 °C 13.0 °C 996.2 hPa WSW 19.5 km/h 19.5 km/h 97 % 1.5 mm
15:17 13.8 °C 13.0 °C 996.2 hPa SW 9.0 km/h 19.5 km/h 97 % 1.8 mm
15:18 13.8 °C 13.0 °C 996.8 hPa WSW 13.7 km/h 23.8 km/h 97 % 1.8 mm
15:23 14.1 °C 14.0 °C 996.8 hPa SSW 13.0 km/h 23.8 km/h 98 % 1.8 mm
15:28 14.0 °C 14.0 °C 996.8 hPa SW 9.0 km/h 19.8 km/h 98 % 2.5 mm
15:33 13.9 °C 14.0 °C 996.8 hPa SW 9.0 km/h 16.3 km/h 98 % 3.8 mm
15:39 13.9 °C 14.0 °C 996.8 hPa WSW 9.0 km/h 16.3 km/h 98 % 4.3 mm
15:44 13.9 °C 14.0 °C 996.8 hPa SSW 11.9 km/h 14.0 km/h 98 % 5.3 mm
15:49 13.9 °C 14.0 °C 996.8 hPa WSW 6.9 km/h 16.9 km/h 98 % 5.6 mm
15:54 13.9 °C 14.0 °C 996.8 hPa SSW 13.7 km/h 20.1 km/h 98 % 5.6 mm
15:59 14.0 °C 14.0 °C 996.8 hPa SSW 11.9 km/h 23.8 km/h 98 % 5.6 mm
16:04 14.1 °C 14.0 °C 996.8 hPa SSW 17.7 km/h 28.0 km/h 98 % 5.1 mm
16:09 14.1 °C 14.0 °C 996.8 hPa SW 17.2 km/h 28.0 km/h 98 % 5.1 mm
16:14 14.2 °C 14.0 °C 996.8 hPa West 12.2 km/h 24.8 km/h 98 % 4.8 mm
16:19 14.4 °C 14.0 °C 996.8 hPa WSW 18.3 km/h 24.5 km/h 98 % 4.8 mm
16:24 14.4 °C 14.0 °C 996.8 hPa SSW 16.9 km/h 27.4 km/h 98 % 4.8 mm
16:29 14.3 °C 14.0 °C 996.8 hPa SSW 13.7 km/h 27.4 km/h 98 % 4.1 mm
16:34 14.3 °C 14.0 °C 996.8 hPa SW 10.5 km/h 21.6 km/h 98 % 3.8 mm
16:36 14.3 °C 14.0 °C 996.8 hPa SSW 13.0 km/h 21.6 km/h 98 % 3.0 mm
16:41 14.3 °C 14.0 °C 996.8 hPa WSW 16.3 km/h 19.5 km/h 98 % 2.5 mm
16:46 14.4 °C 14.0 °C 996.8 hPa South 17.7 km/h 19.5 km/h 98 % 1.5 mm
16:51 14.4 °C 14.0 °C 996.8 hPa SW 11.9 km/h 17.7 km/h 98 % 1.5 mm
16:56 14.5 °C 15.0 °C 996.8 hPa South 13.7 km/h 17.2 km/h 98 % 2.5 mm
17:01 14.5 °C 15.0 °C 996.8 hPa SSW 9.0 km/h 17.2 km/h 98 % 2.5 mm
17:06 14.7 °C 15.0 °C 996.8 hPa SW 11.6 km/h 19.8 km/h 98 % 2.5 mm
17:11 14.8 °C 15.0 °C 996.8 hPa SSW 10.5 km/h 19.8 km/h 98 % 2.5 mm
17:16 14.8 °C 15.0 °C 996.8 hPa SSW 12.2 km/h 17.2 km/h 98 % 3.0 mm
17:21 16.1 °C 16.0 °C 996.8 hPa SW 15.4 km/h 17.2 km/h 98 % 3.3 mm
17:26 16.5 °C 17.0 °C 996.8 hPa WSW 12.2 km/h 23.3 km/h 98 % 3.3 mm
17:31 16.3 °C 16.0 °C 996.8 hPa SW 16.9 km/h 23.3 km/h 97 % 2.5 mm
17:36 15.8 °C 15.0 °C 996.8 hPa SW 12.6 km/h 19.1 km/h 96 % 2.5 mm
17:41 15.4 °C 15.0 °C 996.8 hPa WSW 17.2 km/h 19.8 km/h 96 % 2.5 mm
17:46 15.4 °C 15.0 °C 996.8 hPa SW 14.0 km/h 24.5 km/h 96 % 2.5 mm
17:51 15.2 °C 15.0 °C 996.8 hPa WSW 10.5 km/h 24.5 km/h 96 % 2.5 mm
17:56 15.1 °C 15.0 °C 996.8 hPa WSW 9.7 km/h 21.2 km/h 96 % 1.5 mm
18:01 15.1 °C 15.0 °C 996.8 hPa WSW 17.7 km/h 21.9 km/h 96 % 2.3 mm
18:06 15.3 °C 15.0 °C 996.8 hPa WSW 9.3 km/h 21.9 km/h 97 % 3.3 mm
18:11 15.7 °C 15.0 °C 996.8 hPa WSW 17.2 km/h 21.9 km/h 97 % 3.0 mm
18:16 15.6 °C 15.0 °C 996.8 hPa WSW 19.8 km/h 20.1 km/h 97 % 2.8 mm
18:21 15.4 °C 15.0 °C 996.8 hPa SSW 12.2 km/h 20.1 km/h 96 % 2.8 mm
18:27 15.3 °C 15.0 °C 996.8 hPa WSW 9.3 km/h 19.8 km/h 96 % 3.3 mm
18:32 15.3 °C 15.0 °C 996.8 hPa WSW 15.8 km/h 19.8 km/h 96 % 3.3 mm
18:37 15.3 °C 15.0 °C 996.8 hPa WSW 13.0 km/h 24.5 km/h 96 % 3.3 mm
18:42 15.4 °C 15.0 °C 996.8 hPa SSW 17.7 km/h 24.5 km/h 96 % 3.3 mm
18:47 15.4 °C 15.0 °C 996.8 hPa West 10.1 km/h 21.6 km/h 96 % 3.0 mm
18:52 15.4 °C 15.0 °C 996.8 hPa WSW 23.8 km/h 23.8 km/h 96 % 3.3 mm
18:57 15.4 °C 15.0 °C 996.8 hPa SSW 15.4 km/h 23.8 km/h 96 % 3.0 mm
19:02 15.2 °C 15.0 °C 996.8 hPa WSW 11.6 km/h 23.8 km/h 95 % 2.3 mm
19:07 15.1 °C 14.0 °C 996.8 hPa WSW 14.0 km/h 19.8 km/h 95 % 1.3 mm
19:12 15.1 °C 14.0 °C 996.8 hPa WSW 9.7 km/h 16.3 km/h 95 % 1.3 mm
19:17 15.1 °C 14.0 °C 996.2 hPa WSW 12.6 km/h 15.8 km/h 95 % 1.0 mm
19:22 15.0 °C 14.0 °C 996.2 hPa SSW 11.9 km/h 17.7 km/h 95 % 1.0 mm
19:27 15.0 °C 14.0 °C 996.2 hPa WNW 13.7 km/h 21.2 km/h 95 % 0.3 mm
19:32 15.0 °C 14.0 °C 996.8 hPa WSW 10.1 km/h 21.2 km/h 95 % 0.3 mm
19:37 15.0 °C 14.0 °C 996.8 hPa WSW 9.0 km/h 16.9 km/h 95 % 0.8 mm
19:42 14.9 °C 15.0 °C 996.8 hPa SW 10.5 km/h 19.8 km/h 96 % 0.8 mm
19:47 14.9 °C 15.0 °C 996.8 hPa WSW 10.5 km/h 19.8 km/h 96 % 0.8 mm
19:52 14.7 °C 14.0 °C 996.8 hPa WSW 9.0 km/h 14.3 km/h 96 % 0.5 mm
19:57 14.7 °C 14.0 °C 996.8 hPa WSW 13.0 km/h 14.3 km/h 96 % 0.5 mm
20:02 14.7 °C 14.0 °C 997.9 hPa SW 11.6 km/h 13.7 km/h 96 % 0.5 mm
20:07 14.4 °C 14.0 °C 997.9 hPa WSW 13.0 km/h 13.7 km/h 96 % 0.5 mm
20:12 14.4 °C 14.0 °C 997.9 hPa South 6.9 km/h 15.8 km/h 97 % 0.5 mm
20:17 14.4 °C 14.0 °C 997.9 hPa WSW 5.8 km/h 15.8 km/h 97 % 0.5 mm
20:22 14.4 °C 14.0 °C 997.9 hPa SW 12.6 km/h 19.1 km/h 97 % 0.5 mm
20:24 14.4 °C 14.0 °C 997.9 hPa SSW 8.7 km/h 19.1 km/h 97 % 0.5 mm
20:29 14.4 °C 14.0 °C 997.9 hPa SSW 7.2 km/h 19.1 km/h 97 % 0.8 mm
20:34 14.3 °C 14.0 °C 997.9 hPa Calm   17.7 km/h 97 % 0.5 mm
20:39 14.3 °C 14.0 °C 997.9 hPa SSW 13.7 km/h 16.6 km/h 97 % 0.3 mm
20:44 14.2 °C 14.0 °C 997.9 hPa SSW 10.1 km/h 18.3 km/h 97 % 0.3 mm
20:49 14.2 °C 14.0 °C 997.9 hPa SSW 6.9 km/h 18.3 km/h 97 % 0.3 mm
20:54 14.1 °C 14.0 °C 997.9 hPa SSW 10.5 km/h 15.8 km/h 97 % 0.3 mm
20:59 14.1 °C 14.0 °C 997.9 hPa SW 13.0 km/h 14.0 km/h 97 % 0.3 mm
21:04 14.1 °C 14.0 °C 997.9 hPa SW 12.2 km/h 14.3 km/h 97 % 0.3 mm
21:09 14.1 °C 14.0 °C 997.9 hPa SW 10.1 km/h 19.1 km/h 97 % 0.3 mm
21:14 14.0 °C 14.0 °C 997.9 hPa SSW 9.0 km/h 19.1 km/h 98 % 0.3 mm
21:19 14.1 °C 14.0 °C 998.9 hPa SSW 9.3 km/h 19.8 km/h 98 % 0.3 mm
21:24 14.1 °C 14.0 °C 998.9 hPa WSW 13.0 km/h 19.8 km/h 98 % 0.3 mm
21:25 14.1 °C 14.0 °C 998.9 hPa WSW 16.9 km/h 16.9 km/h 98 % 0.0 mm
21:31 14.0 °C 14.0 °C 998.9 hPa SSW 7.6 km/h 17.7 km/h 98 % 1.0 mm
21:36 14.0 °C 14.0 °C 998.9 hPa South 12.6 km/h 17.7 km/h 98 % 1.3 mm
21:41 14.0 °C 14.0 °C 998.9 hPa SSW 5.8 km/h 19.8 km/h 98 % 1.3 mm
21:46 14.0 °C 14.0 °C 998.9 hPa SSW 11.6 km/h 20.6 km/h 98 % 1.5 mm
21:51 13.8 °C 14.0 °C 998.9 hPa WSW 9.0 km/h 20.6 km/h 98 % 1.5 mm
21:56 13.8 °C 14.0 °C 998.9 hPa WSW 16.9 km/h 16.9 km/h 98 % 1.5 mm
22:01 13.8 °C 14.0 °C 998.9 hPa WSW 10.5 km/h 17.2 km/h 98 % 1.5 mm
22:06 13.8 °C 14.0 °C 998.9 hPa SSW 15.4 km/h 17.2 km/h 98 % 1.8 mm
22:11 13.7 °C 14.0 °C 998.9 hPa SW 14.0 km/h 16.3 km/h 98 % 1.8 mm
22:16 13.7 °C 14.0 °C 998.9 hPa WSW 10.1 km/h 14.0 km/h 98 % 1.8 mm
22:21 13.7 °C 14.0 °C 998.9 hPa SW 14.0 km/h 14.0 km/h 98 % 1.8 mm
22:26 13.7 °C 14.0 °C 998.9 hPa SW 13.0 km/h 17.7 km/h 98 % 1.8 mm
22:31 13.7 °C 14.0 °C 998.9 hPa SSW 15.8 km/h 17.7 km/h 98 % 0.8 mm
22:36 13.7 °C 14.0 °C 998.9 hPa SW 18.3 km/h 18.3 km/h 98 % 0.5 mm
22:41 13.8 °C 14.0 °C 998.9 hPa West 9.0 km/h 18.3 km/h 98 % 0.5 mm
22:42 13.8 °C 14.0 °C 998.9 hPa West 9.0 km/h 18.3 km/h 98 % 0.3 mm
22:47 13.8 °C 14.0 °C 998.9 hPa SW 13.7 km/h 18.3 km/h 98 % 0.3 mm
22:52 13.8 °C 14.0 °C 998.9 hPa SW 16.3 km/h 16.3 km/h 98 % 0.8 mm
22:57 13.8 °C 14.0 °C 998.9 hPa SW 10.1 km/h 18.3 km/h 98 % 1.3 mm
23:02 13.7 °C 14.0 °C 997.9 hPa SSW 9.3 km/h 18.3 km/h 98 % 0.8 mm
23:07 13.6 °C 14.0 °C 997.9 hPa WSW 12.2 km/h 17.2 km/h 98 % 0.8 mm
23:12 13.6 °C 14.0 °C 997.9 hPa SSW 9.3 km/h 14.0 km/h 98 % 0.8 mm
23:17 13.5 °C 14.0 °C 997.9 hPa SSW 10.1 km/h 16.9 km/h 98 % 0.8 mm
23:22 13.5 °C 14.0 °C 997.9 hPa SW 9.3 km/h 16.9 km/h 98 % 0.8 mm
23:27 13.4 °C 13.0 °C 997.9 hPa SSW 9.0 km/h 13.7 km/h 98 % 0.8 mm
23:32 13.4 °C 13.0 °C 998.9 hPa West 8.7 km/h 13.7 km/h 98 % 0.8 mm
23:37 13.4 °C 13.0 °C 998.9 hPa SSW 5.8 km/h 13.7 km/h 98 % 0.8 mm
23:42 13.4 °C 13.0 °C 998.9 hPa SSW 9.0 km/h 11.9 km/h 98 % 0.8 mm
23:47 13.4 °C 13.0 °C 998.9 hPa SSW 11.9 km/h 15.8 km/h 98 % 0.8 mm
23:52 13.4 °C 13.0 °C 998.9 hPa SSW 9.3 km/h 15.8 km/h 98 % 0.3 mm
23:57 13.4 °C 13.0 °C 998.9 hPa WSW 10.1 km/h 12.6 km/h 98 % 0.0 mm
Le Gheer Warneton
Courtoisie de Weather Underground - 2.25 mb

Mise a jour : 17-12-17 02:59:12
Généré par Cumulus 1.9.4 (1099)